When you browse on this site, cookies collect data to enhance your experience and personalize the content and advertising you see.
Visit our Privacy Policy to learn more. By continuing to use the site, you agree to this use of cookies and data.
  • In Germany
  • List of Countries
  • For 7 days
  • Water Temperature
  • Satellite Maps
  • Weather Map
  • Weather Widgets
  • user-avatar
    Login

    Hourly Weather Chakhansur

    Today, 12 December, Wednesday

    Time Temperature Precipitation Wind Pressure Humidity
    00:00 +14°C° 0 mm 2 mps 721 mmHg 37%
    01:00 +14°C° 0 mm 2 mps 721 mmHg 38%
    02:00 +13°C° 0 mm 2 mps 721 mmHg 40%
    03:00 +13°C° 0 mm 2 mps 721 mmHg 41%
    04:00 +12°C° 0 mm 2 mps 721 mmHg 42%
    05:00 +12°C° 0 mm 2 mps 722 mmHg 44%
    06:00 +11°C° 0 mm 1 mps 722 mmHg 45%
    07:00 +11°C° 0 mm 1 mps 722 mmHg 47%
    08:00 +13°C° 0 mm 1 mps 723 mmHg 42%
    09:00 +15°C° 0 mm 1 mps 723 mmHg 37%
    10:00 +18°C° 0 mm 1 mps 724 mmHg 31%
    11:00 +19°C° 0 mm 1 mps 723 mmHg 29%
    12:00 +19°C° 0 mm 1 mps 723 mmHg 27%
    13:00 +20°C° 0 mm 1 mps 723 mmHg 25%
    14:00 +20°C° 0 mm 1 mps 723 mmHg 25%
    15:00 +20°C° 0 mm 1 mps 722 mmHg 24%
    16:00 +20°C° 0 mm 1 mps 722 mmHg 25%
    17:00 +19°C° 0 mm 1 mps 722 mmHg 26%
    18:00 +18°C° 0 mm 2 mps 722 mmHg 27%
    19:00 +17°C° 0 mm 2 mps 722 mmHg 28%
    20:00 +16°C° 0 mm 2 mps 723 mmHg 29%
    21:00 +16°C° 0 mm 2 mps 723 mmHg 29%
    22:00 +16°C° 0 mm 2 mps 723 mmHg 30%
    23:00 +15°C° 0 mm 2 mps 723 mmHg 30%

    Tomorrow, 13 December, Thursday

    Time Temperature Precipitation Wind Pressure Humidity
    00:00 +15°C° 0 mm 2 mps 723 mmHg 31%
    01:00 +14°C° 0 mm 2 mps 722 mmHg 32%
    02:00 +14°C° 0 mm 2 mps 722 mmHg 32%
    03:00 +14°C° 0 mm 2 mps 722 mmHg 33%
    04:00 +13°C° 0 mm 2 mps 722 mmHg 33%
    05:00 +13°C° 0 mm 2 mps 723 mmHg 33%
    06:00 +12°C° 0 mm 3 mps 723 mmHg 34%
    07:00 +12°C° 0 mm 3 mps 723 mmHg 34%
    08:00 +14°C° 0 mm 3 mps 724 mmHg 30%
    09:00 +16°C° 0 mm 3 mps 724 mmHg 27%
    10:00 +18°C° 0 mm 3 mps 725 mmHg 23%
    11:00 +19°C° 0 mm 3 mps 724 mmHg 21%
    12:00 +20°C° 0 mm 3 mps 724 mmHg 19%
    13:00 +23°C° 0 mm 2 mps 723 mmHg 17%
    14:00 +21°C° 0 mm 2 mps 723 mmHg 16%
    15:00 +21°C° 0 mm 2 mps 723 mmHg 16%
    16:00 +22°C° 0 mm 1 mps 723 mmHg 16%
    17:00 +20°C° 0 mm 2 mps 723 mmHg 17%
    18:00 +19°C° 0 mm 2 mps 723 mmHg 19%
    19:00 +18°C° 0 mm 3 mps 723 mmHg 20%
    20:00 +17°C° 0 mm 3 mps 723 mmHg 21%
    21:00 +17°C° 0 mm 4 mps 723 mmHg 23%
    22:00 +15°C° 0 mm 4 mps 723 mmHg 24%
    23:00 +15°C° 0 mm 4 mps 723 mmHg 24%

    Day after tomorrow, 14 December, Friday

    Time Temperature Precipitation Wind Pressure Humidity
    00:00 +14°C° 0 mm 4 mps 723 mmHg 25%
    01:00 +14°C° 0 mm 4 mps 723 mmHg 26%
    02:00 +13°C° 0 mm 4 mps 723 mmHg 27%
    03:00 +13°C° 0 mm 4 mps 723 mmHg 27%
    04:00 +13°C° 0 mm 3 mps 723 mmHg 28%
    05:00 +12°C° 0 mm 3 mps 723 mmHg 29%
    06:00 +12°C° 0 mm 3 mps 724 mmHg 29%
    07:00 +12°C° 0 mm 3 mps 724 mmHg 30%
    08:00 +14°C° 0 mm 3 mps 724 mmHg 26%
    09:00 +16°C° 0 mm 3 mps 725 mmHg 23%
    10:00 +18°C° 0 mm 3 mps 725 mmHg 20%
    11:00 +19°C° 0 mm 2 mps 725 mmHg 18%
    12:00 +21°C° 0 mm 1 mps 725 mmHg 17%
    13:00 +22°C° 0 mm 1 mps 724 mmHg 15%
    14:00 +22°C° 0 mm 1 mps 724 mmHg 15%
    15:00 +22°C° 0 mm 1 mps 724 mmHg 15%
    16:00 +22°C° 0 mm 1 mps 723 mmHg 15%
    17:00 +20°C° 0 mm 2 mps 724 mmHg 17%
    18:00 +19°C° 0 mm 2 mps 724 mmHg 18%
    19:00 +18°C° 0 mm 2 mps 724 mmHg 19%
    20:00 +17°C° 0 mm 2 mps 724 mmHg 20%
    21:00 +17°C° 0 mm 2 mps 724 mmHg 21%
    22:00 +16°C° 0 mm 2 mps 724 mmHg 22%
    23:00 +16°C° 0 mm 2 mps 724 mmHg 22%

    15 December, Saturday

    Time Temperature Precipitation Wind Pressure Humidity
    00:00 +15°C° 0 mm 2 mps 724 mmHg 22%
    01:00 +15°C° 0 mm 2 mps 723 mmHg 23%
    02:00 +14°C° 0 mm 2 mps 723 mmHg 23%
    03:00 +14°C° 0 mm 2 mps 723 mmHg 24%
    04:00 +14°C° 0 mm 2 mps 723 mmHg 24%
    05:00 +13°C° 0 mm 2 mps 723 mmHg 24%
    06:00 +13°C° 0 mm 2 mps 723 mmHg 25%
    07:00 +13°C° 0 mm 2 mps 724 mmHg 25%
    08:00 +15°C° 0 mm 2 mps 724 mmHg 22%
    09:00 +16°C° 0 mm 2 mps 725 mmHg 20%
    10:00 +18°C° 0 mm 2 mps 725 mmHg 17%
    11:00 +20°C° 0 mm 1 mps 725 mmHg 16%
    12:00 +21°C° 0 mm 1 mps 724 mmHg 15%
    13:00 +22°C° 0 mm 1 mps 724 mmHg 14%
    14:00 +22°C° 0 mm 1 mps 724 mmHg 14%
    15:00 +22°C° 0 mm 1 mps 724 mmHg 14%
    16:00 +22°C° 0 mm 1 mps 724 mmHg 14%
    17:00 +20°C° 0 mm 2 mps 724 mmHg 15%
    18:00 +19°C° 0 mm 2 mps 724 mmHg 17%
    19:00 +18°C° 0 mm 2 mps 725 mmHg 18%
    20:00 +17°C° 0 mm 2 mps 725 mmHg 19%
    21:00 +17°C° 0 mm 2 mps 725 mmHg 20%
    22:00 +16°C° 0 mm 2 mps 725 mmHg 21%
    23:00 +16°C° 0 mm 2 mps 725 mmHg 21%

    16 December, Sunday

    Time Temperature Precipitation Wind Pressure Humidity
    00:00 +15°C° 0 mm 2 mps 724 mmHg 22%
    01:00 +15°C° 0 mm 2 mps 724 mmHg 22%
    02:00 +14°C° 0 mm 2 mps 724 mmHg 23%
    03:00 +14°C° 0 mm 2 mps 724 mmHg 23%
    04:00 +13°C° 0 mm 1 mps 724 mmHg 24%
    05:00 +13°C° 0 mm 1 mps 725 mmHg 25%
    06:00 +12°C° 0 mm 1 mps 725 mmHg 25%
    07:00 +12°C° 0 mm 1 mps 725 mmHg 26%
    08:00 +14°C° 0 mm 1 mps 726 mmHg 23%
    09:00 +16°C° 0 mm 1 mps 726 mmHg 20%
    10:00 +19°C° 0 mm 1 mps 727 mmHg 18%
    11:00 +19°C° 0 mm 2 mps 726 mmHg 17%
    12:00 +20°C° 0 mm 2 mps 726 mmHg 16%
    13:00 +20°C° 0 mm 2 mps 725 mmHg 16%
    14:00 +20°C° 0 mm 2 mps 725 mmHg 16%
    15:00 +20°C° 0 mm 2 mps 725 mmHg 17%
    16:00 +20°C° 0 mm 2 mps 725 mmHg 17%
    17:00 +19°C° 0 mm 2 mps 725 mmHg 19%
    18:00 +18°C° 0 mm 2 mps 725 mmHg 21%
    19:00 +16°C° 0 mm 2 mps 725 mmHg 24%
    20:00 +16°C° 0 mm 2 mps 725 mmHg 25%
    21:00 +15°C° 0 mm 2 mps 725 mmHg 27%
    22:00 +15°C° 0 mm 2 mps 725 mmHg 29%
    23:00 +14°C° 0 mm 2 mps 725 mmHg 31%

    17 December, Monday

    Time Temperature Precipitation Wind Pressure Humidity
    00:00 +14°C° 0 mm 2 mps 725 mmHg 33%
    01:00 +14°C° 0 mm 2 mps 725 mmHg 35%
    02:00 +13°C° 0 mm 2 mps 724 mmHg 37%
    03:00 +12°C° 0 mm 2 mps 724 mmHg 39%
    04:00 +12°C° 0 mm 1 mps 724 mmHg 40%
    05:00 +11°C° 0 mm 1 mps 724 mmHg 42%
    06:00 +11°C° 0 mm 1 mps 724 mmHg 43%
    07:00 +11°C° 0 mm 1 mps 725 mmHg 44%
    08:00 +13°C° 0 mm 1 mps 725 mmHg 39%
    09:00 +15°C° 0 mm 1 mps 726 mmHg 34%
    10:00 +18°C° 0 mm 1 mps 726 mmHg 29%
    11:00 +19°C° 0 mm 1 mps 725 mmHg 27%
    12:00 +20°C° 0 mm 1 mps 725 mmHg 25%
    13:00 +20°C° 0 mm 1 mps 724 mmHg 22%
    14:00 +20°C° 0 mm 1 mps 724 mmHg 22%
    15:00 +19°C° 0 mm 0 mps 723 mmHg 22%
    16:00 +19°C° 0 mm 0 mps 723 mmHg 21%
    17:00 +19°C° 0 mm 1 mps 723 mmHg 23%
    18:00 +18°C° 0 mm 1 mps 723 mmHg 26%
    19:00 +16°C° 0 mm 1 mps 723 mmHg 28%
    20:00 +15°C° 0 mm 1 mps 724 mmHg 28%
    21:00 +15°C° 0 mm 1 mps 724 mmHg 28%
    22:00 +14°C° 0 mm 1 mps 724 mmHg 28%
    23:00 +14°C° 0 mm 2 mps 723 mmHg 28%
    Show more